GFSSW_prec_cthk_000.txt.gz
RH
16 15 14 14 12 11 10 10 11 12 16 15 15 15 17 18 17 17 15 13 13 14 18 18 15 14 14 11 14 19 20 18 16 21 18 15 14 19 13 15 14 14 22 44 42
17 16 15 12 11 10 10 10 11 14 15 14 14 15 16 18 18 16 14 14 12 15 18 19 20 19 18 14 17 24 23 20 16 16 18 18 15 15 12 22 25 26 21 25 26
17 15 14 13 11 11 10 11 13 15 15 13 13 15 16 18 20 15 13 12 11 12 16 19 21 20 20 20 22 21 18 16 17 16 14 16 17 19 19 23 28 25 28 30 26
15 15 13 12 11 10 11 13 14 15 13 12 13 14 17 20 20 13 12 11 10 13 14 17 19 21 18 17 16 18 12 13 14 12 12 15 15 14 16 15 16 18 20 23 26
15 14 13 12 11 12 12 13 14 13 13 12 13 16 18 18 17 15 14 16 15 17 17 17 19 20 17 16 18 14 15 15 13 14 13 10 12 15 12 13 10 11 15 18 20
14 13 13 13 14 13 13 12 12 12 12 13 16 17 18 16 16 14 16 18 18 19 16 16 16 15 18 17 17 13 15 17 15 17 14 14 15 15 14 15 13 13 15 17 19
14 14 15 15 15 15 14 13 13 12 13 13 16 18 18 15 16 19 17 16 17 16 14 14 15 19 20 21 15 20 21 23 25 18 14 15 16 17 19 18 16 14 15 16 19
17 16 16 16 17 16 14 14 14 13 13 13 17 19 16 15 18 17 19 17 15 15 14 12 15 18 23 22 27 24 26 27 22 18 18 15 16 21 18 19 19 20 19 20 20
16 16 17 17 16 15 15 14 15 15 14 14 18 21 16 14 16 16 16 15 15 15 15 15 18 21 23 27 30 32 23 24 26 25 20 18 18 18 20 21 21 22 22 23 23
16 17 16 16 16 15 15 14 13 13 13 14 15 19 14 16 13 14 14 14 15 17 19 16 20 27 22 16 21 21 25 27 31 28 23 22 22 21 21 21 22 22 23 23 24
16 16 16 16 16 16 15 19 21 17 18 19 16 17 13 13 13 13 10 13 16 17 17 14 25 21 18 19 17 20 26 26 28 24 23 22 22 22 22 19 18 18 20 22 22
16 16 16 15 15 15 20 30 25 19 15 13 12 10 10 11 14 13 9 14 13 16 14 17 28 22 17 21 20 19 24 26 24 24 23 23 22 23 21 18 17 18 20 21 22
16 16 16 16 16 15 17 13 14 15 22 11 11 11 11 11 12 12 10 11 14 14 14 14 22 17 18 21 22 19 28 27 27 25 25 25 25 26 23 18 17 20 21 23 24
15 17 16 16 15 17 17 10 11 15 25 17 14 15 12 12 17 15 12 13 17 16 13 17 18 17 20 23 21 22 25 27 29 30 29 25 26 29 26 23 22 23 26 28 30
17 16 18 17 26 20 17 14 15 17 45 21 16 14 15 16 18 21 17 17 18 18 17 27 22 18 21 23 22 25 27 30 29 31 30 29 27 30 30 29 29 27 29 31 33
23 19 19 21 22 22 19 18 20 43 47 23 21 23 24 23 22 22 24 23 20 20 20 20 22 21 22 22 27 29 30 28 32 34 41 37 37 26 33 37 33 32 33 35 36
27 27 23 22 28 24 23 26 43 47 26 28 29 25 26 27 28 27 27 29 30 32 33 31 30 27 30 28 31 34 34 43 51 52 51 46 39 33 33 38 36 38 40 41 42
31 30 29 26 23 26 26 38 43 35 31 30 26 26 30 28 33 30 33 38 34 32 34 37 42 33 34 33 36 39 42 55 61 54 48 35 38 34 40 44 44 46 49 51 52
35 37 32 31 28 27 38 48 44 35 32 30 28 30 38 35 31 35 38 37 38 37 40 41 40 38 37 37 38 42 49 47 52 63 64 51 46 39 44 48 52 56 57 60 59
43 47 39 36 32 38 46 46 37 32 32 31 37 35 42 41 39 40 42 41 41 42 41 46 45 41 41 42 46 46 48 55 64 79 70 50 51 44 50 50 49 55 60 58 61
44 54 42 39 41 49 59 47 43 40 41 44 44 42 42 43 45 45 46 46 45 42 43 49 51 47 45 50 50 49 51 59 61 68 77 77 56 48 48 48 53 57 62 65 67
49 59 40 42 54 52 52 45 42 44 44 44 46 45 47 49 50 49 49 48 45 44 51 54 54 58 49 47 49 50 55 59 79 75 73 75 60 52 56 61 63 63 65 64 65
48 49 43 47 66 55 48 48 49 49 49 49 50 48 48 51 53 53 53 54 52 51 57 55 59 59 50 55 57 57 52 54 61 76 80 92 63 50 51 55 58 61 62 61 65
44 51 43 49 51 52 52 53 53 51 51 50 50 51 54 56 58 58 59 59 57 58 60 58 59 66 71 64 65 64 54 51 56 66 65 69 58 54 55 58 61 64 64 64 67
39 42 40 49 46 50 51 52 56 59 54 52 56 56 56 62 58 56 60 61 62 63 65 67 69 67 64 62 67 67 58 55 53 54 61 52 59 51 57 59 64 62 63 67 69
45 42 39 40 39 45 41 45 47 51 50 56 53 55 55 57 58 59 58 60 58 59 62 67 71 71 70 60 66 65 56 52 53 56 56 56 55 56 53 56 60 67 70 72 74
38 36 41 41 41 43 46 44 46 44 47 45 48 51 54 53 53 52 52 52 52 55 56 63 77 82 80 68 73 74 60 59 65 65 64 64 55 54 58 66 72 72 75 74 80

GFSSW_prec_cthk_003.txt.gz
RH
14 15 15 14 13 12 10 10 11 12 13 13 13 14 14 15 14 12 11 11 13 15 15 14 12 11 11 14 20 23 25 20 16 14 14 13 13 17 14 13 12 17 20 23 30
18 16 15 14 12 11 10 10 11 13 13 13 13 15 15 15 13 11 10 11 14 16 16 16 14 15 17 19 21 20 20 18 17 15 15 15 15 13 13 15 19 23 27 30 32
18 16 14 13 12 10 9 10 12 14 12 12 14 15 16 16 14 12 10 11 14 16 17 16 15 17 17 16 18 18 20 18 15 11 10 11 12 12 12 14 20 22 22 24 26
17 16 15 12 11 10 10 12 13 13 11 13 15 17 17 15 14 12 10 11 15 14 13 14 15 16 11 12 12 12 8 9 9 7 8 9 9 11 10 11 11 14 17 18 16
16 14 13 12 11 11 12 13 13 12 12 12 15 16 16 15 14 12 14 15 16 16 14 15 15 16 15 15 16 13 11 11 11 13 11 11 12 13 12 11 10 10 10 13 16
15 14 13 12 12 12 12 12 13 14 14 15 16 16 16 14 14 14 14 16 17 16 15 16 16 16 15 15 19 17 17 17 19 17 16 13 16 17 16 15 15 14 13 13 16
15 15 13 13 12 12 11 12 12 14 17 17 17 17 17 13 15 16 16 15 15 14 13 14 19 19 24 25 23 22 23 22 22 18 18 16 15 17 17 17 18 18 20 20 18
16 15 14 14 13 13 13 14 14 13 13 16 17 18 13 15 15 16 17 15 13 12 13 16 19 20 24 25 27 26 23 26 23 23 21 17 18 16 17 18 18 18 20 21 23
16 15 15 15 14 14 14 14 13 13 13 17 19 20 15 15 15 13 15 12 13 14 17 20 20 21 20 21 26 25 24 23 27 24 22 21 21 20 18 20 20 19 20 20 21
16 16 16 16 16 16 15 14 13 14 16 16 16 20 15 15 12 13 12 11 14 16 18 19 21 23 23 20 22 19 22 25 30 29 25 22 21 20 20 19 19 19 20 21 21
16 16 16 16 16 15 16 18 18 16 19 17 16 17 15 11 12 12 8 12 14 17 17 16 25 23 18 19 20 18 20 24 26 24 23 22 21 21 21 19 19 18 20 20 20
16 16 16 15 15 20 24 29 27 18 15 16 12 11 9 11 13 11 7 11 11 14 14 18 23 22 19 18 19 18 22 26 24 23 24 24 22 23 22 21 18 15 18 21 23
15 15 15 15 15 16 16 19 19 17 22 11 10 11 10 10 11 11 9 12 13 15 15 17 20 18 17 21 22 19 25 26 27 26 25 26 24 22 22 21 25 26 26 25 26
15 15 15 15 14 16 17 12 12 18 29 18 14 16 12 14 15 15 13 16 19 17 13 18 21 20 19 24 24 22 22 25 29 33 34 31 35 28 27 27 27 26 28 30 31
14 16 16 15 20 14 15 11 13 16 45 19 16 13 15 15 17 20 19 19 17 16 17 21 18 19 21 23 23 26 27 29 31 34 35 36 39 33 33 32 36 35 34 37 41
19 17 19 19 20 18 16 13 16 43 46 22 18 19 23 24 22 24 28 25 24 25 25 25 23 26 26 25 27 28 30 28 35 36 49 40 39 38 32 36 42 45 46 47 45
26 24 22 21 24 22 20 24 45 54 27 28 26 24 24 27 26 25 30 32 35 34 35 31 29 27 30 29 29 31 36 50 50 56 57 45 43 39 40 43 46 47 47 46 48
29 29 28 24 24 23 24 38 44 39 32 31 28 25 29 28 27 29 35 37 38 35 40 43 46 34 33 34 34 39 40 61 62 65 56 38 42 38 43 46 50 53 55 54 54
33 33 31 28 27 27 36 51 47 35 33 31 29 31 36 33 32 37 40 42 42 40 43 47 44 37 36 37 40 45 52 46 55 67 68 57 44 42 49 51 61 59 62 64 61
39 41 34 32 30 39 47 44 37 34 30 31 36 35 42 40 42 41 45 47 47 45 43 47 49 43 43 42 45 47 46 59 69 80 80 59 50 57 53 50 55 55 57 57 62
47 51 41 39 40 47 58 45 41 37 39 44 46 46 46 46 47 49 49 51 48 43 45 50 53 51 45 51 55 52 58 64 69 80 89 93 69 53 55 62 64 62 67 68 71
50 53 40 42 46 53 50 44 42 42 43 44 47 48 48 50 51 51 52 50 49 47 55 53 53 62 53 52 54 56 62 65 85 89 82 89 69 49 56 58 55 69 73 67 68
43 43 40 46 55 53 45 45 47 50 50 51 50 48 47 51 54 55 53 55 54 54 56 55 61 68 59 60 63 65 58 60 69 75 75 92 70 59 58 60 68 66 62 60 64
42 48 40 44 47 45 46 47 48 47 49 50 52 52 56 57 58 58 55 57 56 54 55 55 56 61 66 61 66 67 55 52 62 72 67 69 64 59 65 68 67 64 62 67 69
38 40 43 48 48 46 45 44 46 50 48 47 52 54 54 59 57 55 56 53 52 52 53 55 56 59 57 62 65 66 58 54 60 62 69 57 65 60 68 68 66 66 67 67 70
40 40 37 39 40 42 40 44 45 47 44 47 45 48 49 53 54 54 53 52 50 45 51 57 63 63 62 56 65 70 55 55 63 66 64 61 64 69 66 69 67 68 69 74 76
34 34 36 38 40 43 46 44 44 42 45 42 42 42 46 47 46 47 47 47 46 48 50 56 65 72 69 67 75 74 50 57 61 60 63 71 70 73 77 77 77 82 83 80 80

GFSSW_prec_cthk_006.txt.gz
RH
29 28 20 12 13 12 12 10 12 14 14 13 14 14 14 12 10 10 12 12 13 13 14 13 13 17 17 17 15 15 16 17 18 16 15 13 14 14 12 12 14 18 20 24 29
27 16 14 14 13 11 10 11 13 14 13 13 13 15 13 12 10 10 11 13 13 14 13 14 13 14 15 16 17 17 18 18 18 16 12 10 10 9 11 12 17 19 20 22 23
18 17 15 14 11 10 11 12 15 13 12 13 15 15 14 13 10 9 13 14 14 15 15 14 15 14 13 15 18 14 17 18 15 11 9 9 9 10 10 12 14 19 18 17 18
18 16 14 12 11 11 12 15 14 12 12 14 15 16 15 14 12 11 14 14 14 13 13 12 12 11 11 13 11 9 8 8 7 6 6 7 7 9 10 10 12 12 14 18 19
16 14 13 11 12 13 15 15 13 11 13 13 14 14 14 12 11 13 14 13 14 11 12 12 13 13 14 14 13 11 14 16 17 17 14 11 13 13 14 14 13 13 17 18 18
15 14 13 14 15 15 14 13 12 11 12 14 15 14 13 12 12 13 13 13 13 14 15 15 17 17 18 19 21 21 18 18 18 18 18 17 15 18 18 17 18 18 21 22 22
16 15 15 15 15 14 13 13 13 14 15 16 15 14 14 13 14 14 13 13 12 12 15 18 21 23 24 24 24 23 22 20 21 20 20 19 19 18 18 18 18 19 21 23 23
17 16 15 15 14 13 12 12 14 15 15 17 16 14 13 14 14 14 14 12 11 14 16 18 20 22 23 23 26 24 21 22 22 22 21 20 22 20 18 17 17 18 19 20 20
17 16 16 15 14 13 12 12 12 13 17 17 18 18 14 13 11 12 11 10 13 16 18 19 21 19 19 18 21 20 20 20 21 22 22 21 20 19 19 19 18 17 18 18 19
17 16 15 14 14 13 13 13 13 15 17 16 16 16 14 14 11 10 9 9 13 15 17 17 20 21 21 19 23 20 19 20 24 24 24 22 20 20 19 19 17 17 17 18 19
16 15 14 14 14 14 16 17 16 16 16 16 15 16 13 12 11 10 9 12 14 14 16 15 21 24 21 20 20 20 19 23 24 24 22 22 23 21 20 21 19 17 18 21 22
15 15 14 14 15 19 21 22 23 16 16 14 13 12 9 11 12 11 8 11 13 15 14 19 21 22 20 21 21 22 21 24 22 23 25 24 23 20 19 22 23 24 22 28 29
14 14 14 14 17 19 19 19 18 16 18 12 11 11 11 11 12 11 10 13 14 15 15 18 19 20 19 20 23 23 22 24 27 27 28 27 24 22 23 24 26 27 28 30 32
14 14 14 14 13 15 19 16 17 19 25 18 15 14 13 14 16 16 16 18 18 16 15 18 21 20 20 24 23 25 24 26 29 31 36 30 38 30 28 28 29 30 30 32 35
14 13 12 12 16 13 14 11 13 19 39 20 15 15 17 17 17 20 22 22 21 20 19 22 22 25 27 27 27 27 26 28 30 36 37 37 40 36 35 34 33 36 38 39 39
14 15 14 14 17 14 13 12 15 40 40 23 20 20 22 22 22 25 27 26 26 29 29 27 25 27 31 32 30 29 29 31 37 39 49 40 41 46 44 42 45 47 44 44 45
20 18 18 18 18 16 14 20 41 42 27 28 26 22 26 27 26 27 29 30 33 31 36 34 31 31 32 32 30 34 37 50 49 56 56 44 44 42 44 47 49 51 55 58 62
27 27 24 25 24 21 23 36 41 37 32 30 28 27 31 29 28 31 31 37 37 36 42 46 46 37 35 34 38 41 42 56 59 64 57 43 46 44 44 49 50 53 59 63 65
30 28 28 26 26 25 33 45 40 37 33 32 31 32 33 32 32 36 42 44 43 41 44 52 47 40 38 38 41 44 49 46 55 68 68 56 48 42 48 53 55 57 60 61 59
33 31 31 28 29 36 42 38 36 35 33 33 36 37 41 45 43 42 44 48 47 43 44 48 52 44 42 42 46 47 47 60 70 76 83 66 57 56 53 57 56 63 61 60 62
43 37 34 37 39 41 47 43 39 37 37 41 44 47 47 47 48 46 51 49 47 44 46 49 53 49 46 51 53 51 60 64 67 77 88 91 71 53 54 64 68 69 68 65 69
48 42 38 42 46 48 44 41 40 40 39 42 45 47 49 47 49 50 51 51 50 51 52 52 55 61 54 55 55 55 58 65 81 80 81 89 66 51 59 60 66 65 67 71 69
41 41 42 46 46 49 43 44 43 45 47 48 47 45 46 49 53 54 54 54 54 53 52 51 54 58 50 54 53 52 48 58 67 74 77 84 68 55 61 67 65 69 71 74 74
41 43 41 44 44 42 41 43 43 43 45 46 47 50 53 56 55 55 55 54 52 48 46 46 48 51 58 55 61 56 46 52 63 76 73 65 66 60 66 66 70 72 73 75 73
38 38 43 49 45 44 45 45 44 45 41 41 45 46 45 47 47 49 49 50 46 43 46 49 54 55 54 56 60 55 56 59 64 59 74 61 61 60 65 68 71 73 74 73 76
32 34 36 41 42 42 44 43 41 42 43 43 45 45 44 45 45 47 46 48 49 44 45 49 57 61 55 58 66 60 59 60 60 59 59 60 59 66 72 77 78 77 72 74 80
32 32 30 35 38 39 40 37 39 40 43 44 45 44 46 44 47 50 46 41 39 41 45 54 61 70 63 69 74 66 56 54 54 52 57 64 63 69 73 78 82 80 73 79 84

GFSSW_prec_cthk_009.txt.gz
RH
28 29 32 32 26 17 12 13 12 13 13 13 14 15 13 10 10 12 12 14 15 15 14 12 12 15 15 16 16 15 16 16 16 16 15 14 13 12 12 12 12 15 16 19 24
29 30 29 24 14 13 13 13 14 14 13 14 15 15 13 10 10 12 14 15 15 15 15 14 14 14 17 17 15 15 15 15 15 13 11 9 9 9 10 13 15 14 15 17 20
30 28 22 14 15 13 12 13 15 13 14 15 16 15 13 11 11 14 14 15 14 14 14 14 14 14 15 15 15 14 14 15 12 9 9 10 9 9 9 11 13 12 13 16 19
27 19 17 16 13 12 12 15 14 14 15 16 16 16 13 12 11 15 15 14 14 13 15 12 12 12 13 12 9 7 9 11 13 11 8 10 9 10 11 9 10 13 16 17 19
19 18 15 13 12 12 15 15 13 14 15 16 15 14 12 12 13 15 14 14 13 12 13 11 10 11 11 11 11 13 15 16 18 18 17 15 16 14 16 14 15 18 20 21 22
17 15 13 12 13 15 15 14 14 14 14 14 15 14 12 12 12 13 14 14 13 11 11 12 13 15 15 16 16 18 18 18 21 21 19 19 17 18 17 17 16 19 21 21 23
15 14 14 15 15 15 15 14 13 13 14 14 14 13 13 13 13 13 13 13 13 14 16 17 19 21 21 22 22 21 21 20 20 21 21 19 20 20 19 18 16 17 20 21 21
17 16 15 14 15 15 14 13 13 14 14 14 14 13 12 13 13 13 12 11 13 15 15 18 19 20 21 20 22 21 20 20 20 21 21 20 20 20 18 19 18 17 19 19 20
17 17 16 16 15 14 14 14 15 15 16 16 16 14 13 13 11 11 9 9 12 15 17 18 17 18 18 18 20 19 20 21 21 21 23 20 19 18 19 19 19 17 17 19 21
17 16 16 15 15 14 13 13 14 16 17 16 15 13 13 11 10 9 8 10 14 15 16 17 20 21 20 21 23 21 19 20 22 23 24 22 19 19 20 20 20 18 20 21 24
17 15 15 14 14 15 14 13 15 17 15 15 16 15 11 11 10 9 7 11 12 13 15 16 20 22 21 20 20 21 22 22 23 22 23 23 23 21 19 21 23 21 21 23 26
16 15 15 15 17 17 15 15 17 17 16 13 13 11 10 11 10 9 7 11 13 15 14 18 20 21 20 19 21 23 24 22 21 24 26 25 24 21 21 22 22 24 27 27 29
16 15 14 15 17 15 15 18 15 16 15 12 12 11 11 11 12 12 12 14 17 16 16 19 19 20 19 21 23 23 23 25 28 28 29 29 26 25 25 24 26 28 29 31 34
14 14 13 14 16 15 18 17 17 17 21 16 14 13 13 13 15 16 18 19 19 19 18 21 21 23 24 24 26 26 25 26 29 33 36 31 36 34 29 30 32 32 33 35 38
13 13 13 12 13 15 16 15 16 23 32 19 15 16 17 16 16 21 23 24 25 24 23 25 24 26 28 29 28 28 27 30 31 38 38 36 38 36 34 34 35 36 39 41 40
13 13 13 13 13 15 12 12 16 35 35 21 20 20 21 21 22 26 27 26 26 30 31 31 29 29 32 32 30 29 30 33 38 39 46 39 41 39 40 40 42 44 46 47 47
15 15 14 14 15 12 13 18 35 35 26 25 22 21 25 25 27 29 30 30 32 28 36 36 35 36 36 36 34 34 36 47 47 54 52 43 41 42 43 46 50 54 57 57 57
19 16 16 17 17 15 16 34 32 31 28 28 27 27 28 29 31 32 33 37 35 38 45 46 43 40 39 37 38 39 41 53 52 61 56 45 48 46 47 53 58 61 61 58 58
24 24 22 24 24 22 30 41 36 35 32 30 29 31 34 34 32 34 39 43 43 42 44 52 45 41 41 39 41 43 49 47 58 67 68 56 51 46 49 54 60 59 57 58 58
28 27 27 27 28 33 37 35 32 32 31 33 34 35 38 43 44 44 45 45 44 43 43 49 54 44 41 42 45 45 48 58 67 74 75 61 55 51 51 58 52 53 56 58 59
32 28 30 33 36 37 41 37 35 37 38 40 42 44 46 47 46 47 48 46 46 47 46 47 51 46 45 47 50 52 58 60 63 72 77 81 61 50 49 53 54 57 60 64 66
38 33 35 39 40 42 42 39 39 40 39 41 43 44 47 47 49 47 49 50 51 50 49 49 51 53 46 45 46 50 57 58 72 71 72 76 59 49 56 59 59 64 66 66 66
43 39 40 42 48 48 42 42 42 43 45 45 46 46 48 50 52 51 52 51 51 51 47 46 49 53 46 50 47 49 50 55 62 70 74 79 63 50 56 59 60 63 64 66 66
41 44 42 43 43 42 40 40 41 40 42 43 46 46 47 50 49 48 49 48 47 45 43 43 48 48 57 48 49 49 53 56 64 75 74 67 60 54 55 55 58 62 65 67 70
38 41 44 47 43 41 41 40 40 39 38 39 42 41 39 41 40 44 44 44 44 44 44 46 50 48 50 55 56 52 55 55 63 61 72 58 58 52 55 62 67 68 71 71 69
36 38 39 43 42 40 42 39 40 40 39 40 42 44 44 45 43 48 48 49 49 44 47 50 52 52 50 54 57 58 56 62 58 58 61 59 56 53 59 65 69 68 71 72 71
29 31 32 40 38 40 42 37 38 38 38 37 41 42 41 42 44 46 48 49 50 51 54 58 62 71 64 67 71 59 58 58 58 56 57 63 57 58 63 66 65 63 67 68 69

GFSSW_prec_cthk_012.txt.gz
RH
26 30 25 27 29 29 27 21 19 17 16 16 16 15 13 11 13 12 14 15 14 13 11 12 13 15 14 14 16 18 18 19 15 14 13 12 12 10 10 13 11 14 16 16 18
27 28 30 31 33 30 23 16 16 15 15 16 16 14 11 12 14 16 17 16 16 16 12 13 14 15 16 16 16 15 16 14 13 10 9 9 9 9 10 11 13 13 13 13 16
31 30 30 33 29 21 14 15 16 15 17 17 16 13 11 11 15 17 16 15 16 18 15 13 13 14 15 14 13 13 13 12 9 8 9 10 10 10 10 11 11 11 14 16 19
31 34 30 25 15 14 14 16 16 17 17 16 15 14 12 12 16 16 15 14 14 15 14 14 13 15 14 14 7 9 11 12 12 10 10 11 12 12 13 10 13 14 17 18 22
29 29 20 15 15 14 15 16 16 17 17 17 16 13 13 15 16 15 13 13 12 13 12 10 10 12 12 10 10 12 15 19 20 18 16 15 16 16 18 16 15 18 20 21 23
25 18 16 15 14 15 17 16 16 16 17 18 16 13 13 14 16 16 14 14 13 14 12 11 11 12 11 12 14 15 17 19 21 21 19 18 18 18 17 17 16 18 19 21 21
18 17 15 14 15 17 15 16 15 16 18 16 14 13 13 14 14 14 14 14 13 14 14 15 16 15 16 19 19 19 18 17 19 21 22 20 20 19 19 19 19 17 19 20 19
18 17 15 15 16 16 15 14 15 16 16 15 14 13 13 13 12 12 12 12 13 14 15 17 19 18 19 19 19 19 18 20 20 22 21 20 21 19 19 20 20 19 18 21 21
18 16 16 17 16 15 14 14 15 16 16 15 13 12 13 12 11 10 9 10 14 15 16 18 19 18 16 17 19 19 18 20 21 22 23 22 22 20 19 19 21 20 19 24 25
19 18 18 17 16 15 15 15 16 16 15 14 14 13 13 11 10 9 8 12 14 15 16 18 19 18 19 20 21 21 19 20 19 20 23 23 22 22 20 22 22 21 21 24 28
19 18 18 17 18 16 16 15 16 15 14 15 15 13 11 11 10 8 7 11 12 14 16 17 20 22 21 19 20 21 22 23 20 20 23 24 26 22 20 22 24 25 25 25 29
18 17 17 17 17 15 14 14 17 16 13 14 11 9 10 11 10 9 8 11 13 15 14 17 20 20 20 20 20 21 23 23 23 24 26 28 27 23 23 24 25 26 27 28 29
17 16 15 17 15 14 14 15 16 15 12 12 12 12 11 12 12 13 11 14 15 16 17 19 19 20 20 23 26 25 23 25 27 27 29 30 28 28 25 27 27 29 30 31 32
16 15 15 16 15 14 16 15 14 15 18 15 13 15 14 13 14 17 18 18 19 19 21 23 21 23 25 25 27 28 25 26 29 31 35 32 35 32 31 30 32 32 34 34 35
15 15 15 16 16 16 17 16 14 20 26 18 16 17 16 14 16 19 21 22 25 25 25 26 27 30 30 29 29 29 28 28 30 34 36 36 36 35 35 33 35 37 37 38 38
14 14 14 14 14 16 15 14 17 30 29 21 19 20 20 20 22 24 24 26 27 29 30 31 30 32 34 32 31 30 30 31 36 39 44 41 41 39 38 39 41 41 41 43 46
14 13 13 15 14 15 13 15 28 33 25 23 21 22 22 25 27 29 31 31 34 28 37 36 35 36 37 36 35 35 35 41 45 52 50 41 41 40 41 43 44 46 49 50 53
17 15 14 14 13 12 14 31 26 28 25 24 24 26 28 28 32 34 35 38 35 37 46 47 42 40 40 37 40 40 41 52 46 60 56 45 45 46 47 51 52 53 54 57 58
20 17 16 18 14 13 24 36 32 31 28 28 29 31 32 32 33 36 38 42 42 42 44 52 45 43 41 42 42 44 50 48 58 64 63 52 46 50 50 52 50 51 54 56 57
24 22 20 21 20 27 33 34 30 30 31 31 32 34 36 40 41 44 45 45 43 44 43 47 52 44 44 45 45 47 47 53 60 68 66 55 49 48 52 53 51 55 55 57 60
28 24 28 28 31 33 37 33 32 34 35 37 39 42 44 46 46 47 47 45 45 45 44 44 47 40 42 46 49 51 55 56 58 66 74 77 60 48 49 50 51 53 55 57 60
30 30 33 35 35 38 36 34 37 38 38 40 41 42 44 46 48 47 48 47 47 47 47 46 48 48 38 42 47 50 52 53 61 62 71 74 59 47 52 53 51 52 55 58 63
33 34 34 37 40 42 40 41 40 39 40 40 43 46 47 48 50 50 51 50 48 46 46 41 45 47 35 43 46 49 51 55 61 68 71 77 60 48 51 51 53 56 60 65 64
37 41 38 39 42 42 42 40 41 42 41 42 44 44 44 45 44 43 43 42 41 41 41 41 46 45 51 41 41 47 51 55 62 74 70 66 59 49 51 53 53 55 62 63 61
36 42 42 45 44 41 39 38 40 39 39 40 41 40 39 43 42 45 44 46 46 47 48 49 52 51 48 45 45 47 51 56 68 66 75 58 62 56 56 57 58 60 62 62 61
36 40 41 43 42 40 42 39 40 39 37 38 39 39 41 40 39 41 41 42 43 44 48 52 56 56 56 57 60 59 56 61 63 63 66 65 63 55 56 63 64 61 64 65 67
33 35 38 44 41 41 40 37 36 36 37 36 36 38 39 39 39 39 40 42 43 48 51 56 62 65 62 63 61 52 51 61 60 58 58 61 54 57 64 67 65 64 66 68 72

GFSSW_prec_cthk_015.txt.gz
RH
24 22 24 23 22 24 24 25 26 24 23 21 17 15 11 12 16 17 15 15 14 11 13 14 14 14 15 15 16 19 19 16 15 14 12 12 11 9 10 14 13 14 16 16 19
31 27 30 28 24 28 26 27 27 21 17 17 18 14 13 18 19 17 16 17 15 12 12 14 15 16 16 17 18 17 16 15 12 9 9 9 9 9 10 12 14 14 13 13 15
31 28 28 29 29 29 29 30 20 16 19 19 17 14 14 17 16 17 16 17 17 13 14 14 16 16 17 16 15 15 14 10 8 8 9 9 9 9 10 10 11 12 13 16 19
32 31 30 32 34 32 24 17 16 18 19 17 15 13 13 14 18 17 16 16 16 15 14 15 16 15 15 12 11 10 11 11 10 8 10 11 11 12 12 12 14 16 19 20 22
30 33 33 32 22 17 17 16 18 19 18 17 15 13 14 15 16 15 15 15 15 14 12 12 13 13 12 10 12 12 15 16 17 16 15 14 15 17 17 15 16 18 20 20 22
32 31 19 16 16 17 17 17 19 19 20 18 15 14 16 16 18 16 14 14 14 14 12 10 10 10 10 12 13 14 16 18 19 19 18 17 17 19 19 19 18 18 19 21 21
25 18 17 17 16 17 17 19 19 21 19 18 15 15 16 18 17 16 15 15 16 15 14 14 13 12 13 14 17 17 18 18 19 20 21 19 21 21 20 21 21 19 20 22 22
20 19 17 17 18 17 18 18 19 19 18 16 15 15 16 15 14 14 12 13 15 15 15 17 16 17 18 18 18 18 17 18 20 22 23 22 22 21 21 20 20 21 20 22 26
20 18 18 18 18 17 17 17 18 18 17 15 15 14 13 13 12 10 11 13 14 15 17 17 17 16 16 18 17 17 17 18 20 23 23 23 24 22 21 20 20 22 19 21 24
19 19 19 19 17 16 16 17 18 17 17 15 14 13 13 12 10 8 10 13 15 15 16 17 16 17 18 17 18 21 20 21 20 19 21 23 23 22 20 20 22 21 19 21 26
21 20 19 19 17 16 16 18 17 17 16 16 12 11 12 11 9 7 10 11 12 13 16 16 18 21 21 19 20 21 22 23 21 21 22 24 25 21 21 22 23 24 21 24 27
21 20 20 19 17 17 16 16 17 15 15 13 11 11 12 11 10 9 9 11 12 14 14 16 19 19 19 20 21 22 22 22 23 24 25 27 25 23 23 25 27 28 29 30 29
20 19 19 17 17 16 15 17 16 13 14 14 13 12 13 13 13 12 11 12 14 16 16 19 18 19 21 23 25 25 23 24 25 26 27 28 27 27 26 28 30 31 32 32 32
19 18 18 16 15 15 15 15 15 14 16 15 14 15 13 13 14 16 15 16 18 19 22 22 22 25 26 25 26 26 25 27 28 30 30 31 29 30 30 30 33 34 34 35 37
17 16 17 16 15 15 15 14 15 20 25 17 16 16 15 14 16 17 18 20 22 24 24 24 27 30 30 30 30 30 29 29 30 32 34 34 31 33 34 34 35 36 37 39 40
16 15 16 17 16 17 16 15 16 24 25 20 19 19 18 19 21 21 22 22 25 28 28 29 29 30 32 32 32 33 32 32 35 37 39 39 36 39 39 38 38 40 42 45 48
14 14 14 15 15 16 15 17 23 30 24 21 20 21 22 24 26 27 28 29 31 28 36 33 33 34 35 34 35 35 34 35 40 44 42 39 38 42 43 44 46 49 51 52 54
14 14 14 16 14 15 15 25 26 27 24 21 21 24 25 28 31 32 32 35 35 34 40 41 38 38 39 38 40 41 40 45 43 48 46 43 45 46 47 49 51 53 53 54 58
16 15 15 15 13 13 22 31 28 26 22 23 26 28 31 32 33 35 39 39 39 40 41 45 41 41 42 42 43 43 48 46 53 61 56 45 48 50 50 50 51 52 53 56 58
21 18 19 17 13 16 29 29 26 28 29 28 31 32 35 39 40 43 46 44 42 42 41 44 46 41 42 43 44 44 46 48 53 58 56 45 46 44 49 52 52 52 53 51 52
25 23 24 21 22 25 32 31 30 33 33 34 36 39 42 45 46 47 47 45 44 43 41 40 43 40 41 46 48 49 51 54 54 59 64 70 46 44 47 49 50 52 52 52 55
27 29 30 28 29 33 33 32 33 35 37 39 41 41 42 45 47 47 48 47 47 45 44 40 40 37 34 41 45 48 50 49 51 53 59 65 48 42 49 49 51 50 52 55 56
31 32 33 33 37 39 36 36 36 38 40 39 41 42 44 45 48 47 46 43 40 38 39 39 42 40 33 42 45 46 46 48 54 60 59 69 51 46 51 51 54 55 57 58 59
33 39 35 34 35 37 38 39 41 40 41 41 42 42 42 43 42 44 43 42 43 44 44 43 45 43 43 38 42 45 47 52 58 69 64 60 56 49 51 54 56 59 62 62 60
38 40 38 41 39 40 40 39 40 40 39 39 41 39 37 41 41 41 40 39 38 40 41 42 48 47 47 46 49 49 52 57 63 64 74 59 59 54 56 58 60 61 63 62 64
39 43 41 44 42 41 41 38 39 39 37 38 37 38 35 36 34 37 36 35 35 40 43 47 51 52 55 54 54 55 52 57 62 63 66 67 64 58 58 62 66 66 64 65 67
38 39 40 45 41 41 41 39 39 37 37 35 35 35 34 35 35 35 34 35 37 39 46 51 57 62 57 59 57 55 53 61 61 62 63 65 57 60 63 68 68 67 69 71 73

GFSSW_prec_cthk_018.txt.gz
RH
24 22 21 22 21 20 23 20 21 26 27 24 23 18 13 16 16 15 14 12 12 12 13 14 15 15 16 17 18 19 16 16 15 16 13 12 11 9 11 15 14 16 23 23 25
30 27 23 22 24 22 25 24 26 28 25 23 19 14 17 18 17 17 15 12 12 12 14 15 15 17 18 18 17 16 17 15 13 11 11 9 10 9 12 12 14 16 15 16 18
31 30 24 26 26 26 26 28 29 25 22 19 17 16 18 17 17 17 17 13 12 13 15 17 16 18 19 18 17 16 16 13 8 8 9 9 9 8 10 12 12 15 16 19 23
32 27 28 27 27 27 29 28 25 19 20 19 15 16 16 15 20 18 18 16 14 12 13 16 18 19 17 15 14 13 11 7 6 8 10 10 11 10 11 12 14 16 21 24 27
31 32 31 32 33 33 30 23 18 20 19 18 14 14 16 18 18 16 16 15 16 14 15 16 16 13 10 9 11 11 13 13 14 13 13 13 15 17 15 15 16 19 22 25 27
30 33 35 37 27 22 19 17 19 20 20 17 14 14 16 18 16 14 14 14 14 15 13 12 12 11 10 12 13 13 16 17 18 18 17 17 17 18 18 18 16 18 21 24 26
35 31 18 17 18 19 17 20 20 22 21 18 16 16 18 18 17 14 14 14 14 15 14 12 11 12 12 14 16 16 18 18 19 20 22 19 20 19 19 18 19 19 20 25 26
21 18 18 19 19 18 21 21 23 22 20 18 17 17 19 17 15 14 14 15 15 16 18 18 17 16 18 18 18 17 17 19 19 20 21 21 25 21 22 21 20 22 21 23 24
21 20 19 19 19 21 21 23 22 20 18 17 17 17 16 14 14 12 13 15 16 17 20 18 18 19 18 18 17 15 17 16 18 18 20 20 24 23 21 19 20 21 22 23 26
21 20 20 20 20 20 21 21 20 19 17 17 15 15 13 13 10 11 13 15 17 19 20 20 19 17 16 16 16 17 17 18 18 19 18 20 22 20 19 19 20 23 23 22 27
21 21 21 20 20 19 20 19 18 19 17 18 16 14 13 12 10 11 11 14 15 16 18 17 19 20 18 16 17 17 19 20 20 20 21 22 22 20 22 22 24 26 25 26 32
22 23 21 19 18 19 19 19 18 17 15 14 14 13 13 11 11 10 11 12 13 14 14 15 18 18 18 18 19 20 20 21 22 22 24 25 25 23 24 25 27 29 31 31 32
24 22 21 19 19 18 18 19 15 15 16 14 14 13 13 13 12 11 11 12 14 15 15 16 17 18 20 22 22 23 22 25 25 24 24 25 27 26 26 28 30 30 32 34 35
22 22 20 19 19 17 18 17 13 14 16 16 15 14 13 13 14 14 13 14 16 18 19 21 22 25 25 26 26 24 25 26 25 25 26 26 33 29 29 31 33 34 35 36 38
20 20 19 17 18 17 17 17 13 19 22 17 17 17 15 15 16 18 17 17 19 21 23 24 25 27 28 28 29 31 30 29 28 27 27 29 30 35 33 33 35 37 38 39 42
19 19 18 17 16 17 16 16 17 22 23 19 19 19 19 19 19 20 21 21 23 24 24 26 27 27 29 29 29 31 30 30 33 34 38 35 35 38 36 37 40 42 43 45 47
18 17 17 17 16 16 16 16 20 23 21 20 20 20 20 22 22 23 25 26 26 26 29 28 29 31 32 30 32 33 32 36 44 44 42 37 35 41 40 41 42 43 46 48 52
16 16 15 15 15 17 16 23 22 24 22 19 20 20 21 24 26 28 26 28 29 28 29 30 35 34 35 36 37 37 38 43 45 43 43 38 37 41 42 43 44 45 50 53 55
15 15 14 14 14 15 21 28 25 22 20 19 21 23 25 28 29 30 32 32 34 35 35 36 37 37 39 38 39 40 43 41 46 54 49 38 40 43 43 45 48 51 54 55 57
16 15 15 14 15 16 27 23 22 21 21 23 26 27 30 32 33 34 39 40 39 37 36 37 40 38 39 39 40 40 41 46 44 58 41 32 39 40 44 49 51 53 53 55 55
18 20 18 15 16 23 28 25 24 27 27 28 30 32 34 37 38 40 41 41 39 39 37 35 35 33 32 36 38 41 43 42 42 47 48 45 33 40 44 47 50 51 52 53 57
23 26 22 20 23 25 26 26 30 32 31 33 36 37 38 41 42 41 42 42 42 36 32 33 35 34 33 39 42 43 45 43 43 47 52 54 41 39 45 50 52 57 57 59 62
30 31 27 27 32 33 30 33 34 33 36 37 38 37 39 41 43 42 41 40 37 36 38 36 37 33 33 41 44 46 45 44 45 51 56 68 50 48 52 54 58 56 58 61 62
32 37 34 32 31 30 34 35 35 37 38 36 37 37 38 40 38 41 40 37 37 36 36 34 35 34 33 33 38 43 43 47 51 62 57 52 52 51 53 58 58 60 63 65 66
31 35 34 37 34 33 35 36 38 39 39 37 37 36 36 39 37 37 35 34 33 32 35 35 34 38 38 39 42 48 48 50 53 58 66 60 57 59 59 59 60 65 67 66 68
36 36 35 36 35 35 38 40 39 38 36 35 35 35 32 32 29 32 30 29 29 33 36 35 39 42 44 44 44 47 49 53 60 62 64 65 65 62 62 65 67 68 69 70 72
38 38 39 42 40 41 41 39 37 35 36 35 34 33 34 30 30 31 31 31 32 34 38 41 47 51 57 51 52 60 52 55 58 63 67 67 65 64 67 70 69 71 70 71 72

GFSSW_prec_cthk_021.txt.gz
RH
21 20 21 21 18 19 18 19 20 20 22 25 27 22 20 19 17 15 19 14 13 12 11 13 14 16 17 18 18 16 22 24 21 21 16 12 14 11 15 19 21 19 34 29 28
25 27 25 21 22 21 20 23 21 23 25 26 24 20 18 17 17 23 13 13 13 14 15 17 17 17 20 21 20 19 20 21 16 17 13 11 13 10 17 16 16 20 19 33 26
27 29 28 23 23 23 23 25 24 27 27 26 22 19 17 18 24 22 14 14 14 14 16 18 18 20 20 19 17 20 23 14 11 11 10 9 10 9 13 16 17 20 19 27 23
31 30 30 24 23 21 26 27 28 28 25 22 19 18 18 22 32 20 16 15 14 17 20 21 21 23 24 21 17 18 15 11 8 7 11 11 11 10 13 16 14 19 23 27 26
31 31 28 26 29 28 27 30 27 24 25 21 18 19 17 28 25 19 17 16 15 17 23 23 23 20 17 14 15 13 10 8 8 8 11 11 13 15 13 14 14 20 24 29 33
31 32 30 29 29 28 30 28 24 25 23 19 17 17 21 31 17 18 16 16 18 20 18 18 17 15 14 17 22 15 14 16 16 16 13 15 16 17 18 15 15 18 25 32 33
28 31 30 34 32 31 25 22 22 23 20 17 14 15 23 25 15 15 14 14 14 17 17 12 12 15 15 15 14 14 16 17 18 19 20 16 19 18 19 18 18 18 21 34 38
32 33 39 27 24 22 21 23 24 22 19 16 15 16 26 16 15 12 13 13 13 13 13 11 12 19 23 17 16 19 26 29 23 18 20 19 36 25 20 20 21 23 22 25 33
25 19 18 22 19 20 23 24 24 21 19 18 17 22 21 15 17 15 14 17 16 18 19 18 21 21 20 22 24 20 29 22 23 17 19 20 33 29 25 21 20 21 24 24 29
21 21 20 19 21 23 24 24 22 20 19 18 20 23 15 17 14 13 14 15 20 21 21 21 22 25 23 27 27 25 21 18 21 24 17 20 22 26 21 19 19 21 23 26 27
22 21 20 21 22 23 23 22 21 21 21 24 18 21 13 12 10 14 15 17 18 21 30 19 31 34 24 19 21 17 18 23 22 21 18 22 23 24 21 22 22 24 24 26 31
22 21 21 22 21 22 21 35 28 21 19 17 16 15 12 14 14 13 14 18 18 25 17 17 27 19 18 18 18 20 22 23 21 21 20 26 29 25 24 25 27 28 31 34 37
26 24 21 21 21 21 24 24 19 18 18 17 16 16 13 15 15 13 13 14 15 15 15 25 21 16 18 21 20 24 23 26 24 23 22 23 30 27 26 26 28 30 33 36 37
26 23 21 20 20 21 23 18 17 19 20 14 16 14 14 14 14 12 11 14 14 17 18 20 19 21 22 25 23 28 26 24 23 24 35 28 41 41 35 30 31 34 35 37 39
25 23 22 22 25 23 20 16 15 20 29 16 16 14 13 17 16 15 14 15 19 19 21 27 24 26 27 26 24 28 26 27 27 28 27 28 25 49 40 36 35 39 41 44 44
23 21 20 21 20 20 18 16 14 31 28 18 17 20 18 17 16 18 19 18 20 21 23 24 24 26 27 26 25 26 29 29 30 34 38 41 30 50 49 39 39 43 46 49 47
21 21 20 20 23 19 17 18 22 35 20 19 20 20 23 20 20 21 22 24 28 30 31 28 30 29 28 33 33 33 36 45 51 47 52 43 29 47 42 41 42 45 47 46 49
19 20 20 18 17 17 16 26 34 25 21 21 22 22 24 24 24 25 27 27 25 26 30 33 42 33 31 33 34 36 36 47 46 48 45 39 34 46 40 40 42 44 46 48 53
19 19 19 18 16 17 23 34 27 22 21 20 21 22 23 22 26 28 29 28 27 29 37 34 37 32 32 33 33 39 42 34 42 48 43 34 42 44 45 43 42 45 49 52 56
21 21 21 17 15 17 31 34 24 20 19 20 26 26 29 28 29 31 33 33 34 32 31 31 39 32 31 28 36 32 32 45 45 53 40 36 36 43 55 50 51 48 50 53 53
22 24 18 15 15 23 31 25 20 20 21 27 28 28 31 31 33 36 36 35 33 32 31 28 29 34 29 37 35 44 48 43 39 43 48 41 35 44 49 47 49 50 54 56 57
24 32 16 16 22 28 30 23 23 23 27 29 32 31 34 34 36 37 37 37 35 31 31 30 31 32 29 32 33 36 42 42 46 43 50 54 43 44 47 54 54 57 60 59 61
32 35 18 18 34 30 28 28 28 30 31 32 35 35 36 36 38 36 38 36 33 31 37 29 34 34 33 40 43 42 45 45 45 47 45 64 55 58 59 63 62 62 64 67 68
35 36 26 23 32 27 28 28 32 33 33 36 36 34 35 36 36 37 36 34 31 31 28 30 32 29 33 32 34 39 41 43 48 55 56 54 57 56 61 65 62 63 67 67 66
38 38 31 32 31 31 31 32 34 34 36 36 36 36 36 38 36 37 35 31 29 28 30 31 35 31 32 30 34 39 43 45 47 51 61 56 60 63 65 64 64 68 67 66 65
37 37 34 36 34 35 36 35 34 37 37 36 37 36 34 35 29 33 30 29 29 31 34 31 36 37 35 33 36 42 44 45 47 53 57 62 62 64 64 63 65 65 66 68 67
33 33 36 35 35 38 36 37 38 39 39 36 36 34 35 34 32 31 31 31 30 34 35 34 36 40 44 38 44 59 48 47 51 57 59 63 62 60 63 67 70 72 70 74 74

GFSSW_prec_cthk_024.txt.gz
RH
21 21 20 18 22 24 23 21 20 23 23 24 25 25 23 23 20 22 24 20 13 11 10 10 13 14 16 19 24 24 31 34 33 36 31 17 17 18 20 26 26 27 28 29 25
23 22 22 22 20 19 19 19 19 22 22 23 25 24 23 20 24 25 21 13 13 12 14 16 18 19 20 18 24 23 22 23 22 23 20 13 15 10 15 16 17 26 32 28 21
23 23 25 26 23 20 20 20 23 21 24 26 24 23 21 23 30 25 13 14 13 15 18 20 21 22 22 20 23 25 25 21 20 17 14 12 12 12 17 15 17 19 25 26 23
28 28 26 29 24 21 21 23 26 26 27 27 23 24 24 31 41 18 15 14 15 18 21 22 23 24 25 24 23 26 24 21 13 11 12 9 10 11 17 19 18 19 22 31 28
31 31 30 29 26 22 21 25 28 28 28 24 22 22 27 36 32 17 16 17 20 23 27 34 34 29 26 25 19 19 16 10 7 8 11 12 10 13 14 15 15 24 27 33 33
32 30 29 28 24 24 24 28 30 30 23 23 21 19 28 41 25 18 15 19 27 25 26 31 34 29 22 21 26 14 12 10 9 9 9 10 14 14 16 15 15 21 26 34 41
30 30 30 28 28 28 29 30 29 25 28 20 19 20 35 36 21 19 17 16 20 25 27 21 22 25 25 22 20 15 17 15 15 15 15 13 19 19 19 17 16 17 23 36 40
29 31 31 30 31 35 31 29 25 28 24 18 17 17 33 23 17 14 15 15 15 19 18 14 15 23 29 19 14 17 24 30 25 21 19 17 30 31 25 21 19 21 23 25 42
27 35 38 34 32 28 26 25 26 23 19 16 15 23 34 12 12 14 13 18 14 13 12 11 15 19 16 17 23 22 33 34 32 23 21 19 37 38 30 25 21 23 28 28 30
33 28 35 24 22 24 25 26 23 20 19 17 22 32 19 18 15 13 13 15 18 19 18 18 21 24 22 33 40 35 24 27 24 22 16 17 25 37 29 25 20 22 23 33 35
29 22 22 23 25 26 25 23 22 22 24 30 22 26 18 14 13 16 15 17 20 23 28 19 31 40 34 26 27 28 24 24 31 22 20 17 23 29 23 24 24 24 26 33 37
25 24 22 25 25 24 28 40 37 27 25 23 20 19 15 17 16 15 15 19 19 28 28 20 31 35 31 17 19 26 23 28 27 22 18 26 29 29 26 26 28 29 30 34 36
24 23 25 25 25 25 38 41 29 20 21 18 19 15 14 17 17 14 14 18 22 29 20 31 29 15 14 20 19 27 23 29 26 23 20 20 29 31 30 30 32 32 34 37 38
27 26 25 24 25 27 35 22 20 22 21 14 15 13 13 15 14 13 13 17 18 23 22 24 22 18 21 23 21 26 27 27 21 23 31 35 40 45 43 43 41 35 36 38 39
30 27 26 26 33 28 28 18 21 28 36 17 16 16 14 19 17 14 10 12 21 20 21 29 25 26 28 27 22 26 25 22 23 26 27 34 36 47 45 47 47 47 40 41 45
29 26 26 28 27 30 22 17 17 46 41 17 16 19 17 16 17 17 15 17 18 19 24 25 22 23 25 23 23 21 26 27 29 29 41 33 42 56 51 54 58 53 46 47 50
28 27 26 27 31 22 18 17 26 45 20 19 19 20 21 20 20 21 22 23 31 31 30 27 28 26 23 30 33 33 36 50 68 60 57 49 43 51 50 57 60 56 49 48 47
27 26 23 23 26 20 18 28 40 29 22 19 20 22 24 22 21 23 26 25 24 29 35 41 48 32 29 30 33 34 34 52 53 63 59 48 39 52 45 49 49 43 45 45 49
24 23 23 20 19 19 26 38 34 23 24 21 22 27 25 23 25 27 33 29 26 28 37 35 40 28 29 29 29 37 46 31 37 49 46 27 51 57 57 58 56 55 53 52 53
22 21 24 19 18 19 33 39 38 25 20 22 24 26 29 26 28 35 33 30 30 30 30 29 40 28 25 31 40 33 30 43 58 59 47 36 44 64 63 61 62 60 54 52 55
24 25 27 19 17 24 34 39 29 21 21 25 30 27 39 33 36 38 38 34 33 28 29 27 31 33 31 34 29 36 43 41 40 48 54 52 43 50 58 60 61 58 58 57 57
22 32 30 17 22 24 34 33 26 19 21 26 30 34 38 33 39 39 38 38 31 30 30 24 28 34 28 27 28 30 36 39 53 48 56 57 43 43 47 55 58 63 64 66 66
30 50 30 17 31 36 37 31 26 22 23 28 32 35 37 39 41 39 38 35 32 30 36 25 32 38 37 40 38 33 37 39 45 51 52 58 48 57 58 67 72 69 70 70 68
49 46 27 22 45 31 32 28 28 28 31 32 36 36 36 40 37 37 38 36 30 28 22 28 29 27 32 30 29 30 31 36 43 60 56 56 55 55 62 70 71 71 66 63 61
52 40 24 24 34 34 29 30 31 31 32 33 37 36 38 39 38 38 37 32 29 23 26 28 31 28 26 25 28 31 33 37 42 46 54 52 57 61 66 66 64 62 59 59 60
51 49 32 39 24 32 36 33 33 34 35 35 38 40 41 39 36 39 34 30 31 28 32 29 35 32 28 28 30 31 34 38 42 46 50 54 56 60 63 61 60 61 61 61 62
44 39 37 34 35 39 37 35 37 38 38 41 42 43 43 39 37 35 32 31 30 33 33 34 35 35 40 36 37 55 47 42 47 52 56 61 60 59 64 64 67 65 65 66 69

GFSSW_prec_cthk_027.txt.gz
RH
24 23 21 20 19 17 21 24 24 23 23 24 27 27 26 24 22 23 23 20 17 13 10 11 12 12 23 34 32 34 35 38 38 41 42 38 29 22 26 29 27 26 27 30 26
26 23 23 21 19 18 19 22 21 19 21 24 25 26 26 23 26 24 24 17 14 12 12 13 15 22 31 31 29 28 29 31 32 34 34 27 17 15 21 22 26 29 26 28 23
25 23 23 21 22 22 17 17 18 20 22 24 25 25 23 30 28 24 15 15 13 14 16 17 21 24 31 28 26 25 25 25 28 26 22 17 11 15 17 16 18 20 26 26 21
23 24 25 22 24 23 19 17 19 25 24 26 26 23 30 34 37 20 16 15 17 18 22 23 22 21 24 26 26 25 24 22 22 21 18 9 10 13 15 17 18 19 21 23 19
28 29 29 28 25 25 21 19 23 27 28 29 24 26 38 40 31 21 17 20 22 24 30 31 30 30 25 24 24 22 19 22 19 20 10 9 9 12 15 17 19 20 25 25 26
30 32 31 29 27 27 21 20 26 30 32 25 23 35 41 40 30 18 19 25 30 32 34 31 35 31 27 25 19 16 13 8 5 7 8 10 11 12 13 14 19 21 23 28 32
31 31 29 26 26 25 21 22 30 34 30 23 25 34 35 34 25 20 20 26 26 29 27 26 32 29 29 23 20 14 13 13 12 12 11 13 16 20 18 18 19 18 24 30 34
30 28 28 26 25 25 27 30 35 30 24 21 21 29 35 29 19 18 18 19 23 22 20 22 25 22 24 19 16 18 23 26 26 25 18 20 26 24 26 26 24 18 22 29 34
29 25 30 28 29 31 34 38 30 29 23 19 21 26 32 18 14 16 14 16 17 17 12 15 20 19 22 28 33 35 38 38 37 26 22 24 27 27 28 29 25 22 24 26 36
28 30 31 31 33 39 35 28 28 24 21 19 23 33 22 20 14 12 12 14 13 14 14 16 30 35 38 37 42 36 35 38 34 25 21 20 26 33 30 29 30 28 27 31 33
33 34 36 40 37 27 26 27 24 23 20 24 31 23 18 15 12 12 12 15 17 21 27 33 34 36 30 30 34 31 31 33 27 24 22 19 27 32 31 31 32 30 29 33 37
32 25 38 27 25 26 27 32 34 31 28 23 26 24 18 19 18 17 16 20 24 27 30 33 32 37 37 31 26 32 31 34 26 23 22 24 29 30 30 34 33 31 34 37 39
31 24 25 26 28 31 41 42 37 30 27 23 23 18 18 19 19 15 19 21 27 27 26 26 28 25 21 26 20 26 30 31 26 24 20 24 30 32 31 35 39 43 43 38 37
26 25 27 28 28 38 38 37 29 27 24 18 17 12 16 16 15 13 15 18 21 24 23 25 28 26 17 20 20 26 26 27 26 24 27 30 42 38 36 39 45 49 46 44 44
27 28 28 27 36 36 37 27 26 27 39 18 17 14 14 19 18 11 12 16 23 23 24 25 24 25 28 26 25 24 24 23 23 25 28 33 42 50 49 49 48 49 49 53 49
30 30 28 32 35 34 31 24 28 52 39 19 16 16 13 17 19 16 12 18 20 21 23 27 26 24 25 23 25 24 28 29 33 33 43 42 50 57 55 54 55 52 57 61 57
30 29 29 31 32 28 25 24 48 61 22 17 19 20 20 19 17 18 17 22 29 29 29 28 29 25 23 29 31 31 34 52 58 72 63 50 56 71 64 58 54 55 58 57 52
30 29 28 27 29 24 20 26 48 31 24 19 21 26 25 22 23 24 25 26 30 37 38 42 45 33 27 28 32 32 35 53 50 68 61 48 57 63 58 59 67 68 64 58 61
30 29 26 24 26 22 22 48 45 31 26 23 23 28 26 25 24 33 36 33 27 33 38 46 41 31 27 23 27 30 40 29 38 48 53 46 54 60 61 66 73 73 73 68 62
28 27 25 23 23 21 32 49 38 29 27 24 26 28 31 25 27 32 34 32 26 29 32 36 41 27 29 35 33 32 31 42 51 55 51 47 60 70 60 64 68 67 69 67 61
26 25 25 23 20 22 38 44 33 28 24 25 30 31 42 35 36 40 39 34 33 29 27 32 37 31 31 30 28 32 37 36 39 50 60 63 54 52 60 66 66 68 65 63 63
26 29 30 22 21 25 29 34 31 26 22 25 32 31 38 36 40 41 43 40 32 31 32 26 33 38 31 28 28 27 32 34 49 46 61 68 55 50 54 59 65 66 70 72 70
26 34 37 21 26 29 33 35 30 23 22 25 29 33 37 37 41 43 43 37 32 33 32 27 28 44 35 35 30 27 30 34 43 50 51 62 55 53 60 66 72 71 71 70 71
39 46 41 24 31 29 38 36 32 26 27 26 30 32 37 40 39 44 41 35 32 24 24 29 26 29 40 30 26 27 26 29 41 58 56 59 54 51 65 63 66 66 65 68 70
51 44 34 25 38 34 39 32 30 30 28 31 32 35 37 40 40 42 41 37 29 22 23 27 31 30 28 23 22 26 27 30 35 40 50 50 56 59 61 69 72 67 65 67 69
50 59 30 22 34 35 36 34 34 32 30 32 34 40 43 43 42 43 38 33 32 27 28 27 37 30 24 27 30 27 30 36 37 39 43 51 56 62 64 64 64 67 69 71 70
63 59 38 39 27 38 39 35 36 35 33 35 40 47 47 43 40 39 36 31 33 30 31 34 37 35 38 36 37 45 36 36 36 41 45 53 55 59 61 62 66 69 71 71 66